Regional Weather Roundup
Issued by NWS Newport/Morehead, NC

Current Version | Previous Version | Text Only | Print | Product List | Glossary On
Versions: 1 2 3 4 5 6 7 8 9 10 11 12 13 14 15 16 17 18 19 20 21 22 23 24 25 26 27 28 29 30 31 32 33 34 35 36 37 38 39 40 41 42 43 44 45 46 47 48 49 50
000
ASUS42 KMHX 020810
RWRMHX
WEATHER ROUNDUP FOR EASTERN NORTH CAROLINA
NATIONAL WEATHER SERVICE NEWPORT/MOREHEAD CITY NC
400 AM EDT TUE SEP 02 2014

NOTE: "FAIR" INDICATES FEW OR NO CLOUDS BELOW 12,000 FEET
WITH NO SIGNIFICANT WEATHER AND/OR OBSTRUCTIONS TO VISIBILITY

NCZ015>017-031-032-045>047-102-103-020900-
NORTH COAST

CITY           SKY/WX    TMP DP  RH WIND       PRES   REMARKS
EDENTON        PTCLDY    78  75  90 SW7       30.03F
ELIZABETH CITY PTCLDY    77  73  87 SW7       30.02F
KITTY HAWK     SUNNY     78  75  89 SW6       30.03S
MANTEO         PTCLDY    78  75  90 SW8       30.04S

$$

NCZ045>047-081-094-103-104-020900-
CENTRAL COAST

CITY           SKY/WX    TMP DP  RH WIND       PRES   REMARKS
FRISCO         PTCLDY    79  77  94 W9        30.05S
SWANQUARTER      N/A     79 N/A N/A SW7G18    30.00F

$$

NCZ095-097-098-100-101-020900-
SOUTHERN COAST

CITY           SKY/WX    TMP DP  RH WIND       PRES   REMARKS
BEAUFORT       PTCLDY    81  76  84 SW10      30.06F
CEDAR ISLAND     N/A     79 N/A N/A S9        30.09S
JACKSONVILLE   PTCLDY    76  74  93 SW3       30.06F
NEWPORT        NOT AVBL
PINEY ISLAND   SUNNY     80  78  94 SW7       30.05F
WILMINGTON     PTCLDY    77  75  93 S5        30.06F


$$

NCZ011>013-027>030-043-044-078>080-089-090>093-098-020900-
COASTAL PLAIN

CITY           SKY/WX    TMP DP  RH WIND       PRES   REMARKS
AHOSKIE        CLEAR     74  73  95 CALM      30.03S
CLINTON        CLEAR     75  75 100 CALM      30.06S
ELIZABETHTOWN  CLEAR     77  76  97 CALM      30.06S
GOLDSBORO      CLEAR     77  76  98 SW3       30.03F
GREENVILLE     CLEAR     77  73  88 SW5       30.06S
HAVELOCK       CLEAR     77  75  93 SW7       30.07F
KENANSVILLE    CLEAR     75  73  95 CALM      30.07S
KINSTON        CLEAR     76  74  93 SW7       30.06S
NEW BERN       CLEAR     77  74  90 SW3       30.07F
RICHLANDS      CLEAR     73  72  94 SW3       30.06F
ROANOKE RAPIDS NOT AVBL
ROCKY MOUNT    CLEAR     76  74  93 SW6       30.04S
WASHINGTON     PTCLDY    76  74  95 SW5       30.05S
WHITEVILLE     PTCLDY    76  74  93 CALM      30.06S

$$

AMZ130-135-150-152-154-156-158-170-250-252-270-ANZ085-086-088-633-658-670-020900-
MARINE OBSERVATIONS

STATION/POSITION TIME  TEMP    WIND        PRES    WAVE   SWELL
                       AIR SEA DIR/SP/G            HT/PER HT/PER
                 (UTC) (F)     (DEG/KT/KT) (MB)    (FT/S) (FT/S)
CHESAPEAKE LIGHT 0700   80     220/ 13/ 14 1016.7
BUOY 44014       0800   78 78  220/ 14/ 16 1015.9    3/ 9   2/ 9
DUCK             0800   79 75  220/ 12/ 14 1016.1
2E DUCK          0800                        N/A     2/10   2/11
OREGON INLET     0800   80 84  220/ 12/ 15 1017.1
BUOY 44095       0800      79                N/A     3/11   2/11
20E OREGON INLET NOT AVBL
HATTERAS CG      0800   81 84  250/ 10/ 13 1018.1
DIAMOND BUOY     0800   81     230/ 16/ 19 1017.4    4/ 4   2/12
CAPE LOOKOUT     0700   81     220/ 10/ 11 1017.9
BEAUFORT LAB     0800   81 83  240/  4/  9 1017.5
30 SE NEW RIVER  0700   82 82  230/ 14/ 16 1018.1
5 SE WRIGHTSVILL 0700   78 83  230/ 14/ 17   N/A
BUOY 41002       0654   81 83  210/ 12/ 14 1019.8    4/10   3/10
BUOY 41004       0800   83 84  220/ 12/ 14 1017.5    2/ 8   2/ 8

$$



USA.gov is the U.S. government's official web portal to all federal, state and local government web resources and services.